TimeCST,TemperatureF,Dew PointF,Humidity,Sea Level PressureIn,VisibilityMPH,Wind Direction,Wind SpeedMPH,Gust SpeedMPH,PrecipitationIn,Events,Conditions,WindDirDegrees,DateUTC
12:16 AM,30.2,24.8,80,30.11,10.0,NNE,5.8,-,N/A,,Overcast,20,2003-01-02 06:16:00
12:36 AM,30.2,24.8,80,30.11,10.0,North,6.9,-,N/A,,Overcast,10,2003-01-02 06:36:00
12:56 AM,30.2,24.8,80,30.11,10.0,North,9.2,-,N/A,,Overcast,10,2003-01-02 06:56:00
1:16 AM,30.2,26.6,86,30.11,7.0,North,6.9,-,N/A,,Overcast,0,2003-01-02 07:16:00
1:36 AM,30.2,26.6,86,30.12,7.0,North,5.8,-,N/A,,Overcast,10,2003-01-02 07:36:00
1:56 AM,28.4,26.6,93,30.12,5.0,NNE,5.8,-,N/A,,Overcast,20,2003-01-02 07:56:00
2:16 AM,28.4,26.6,93,30.12,5.0,NNE,5.8,-,N/A,Snow,Light Snow,20,2003-01-02 08:16:00
2:36 AM,28.4,26.6,93,30.13,10.0,North,8.1,-,N/A,,Overcast,10,2003-01-02 08:36:00
2:56 AM,28.4,26.6,93,30.13,10.0,NNE,5.8,-,N/A,,Overcast,20,2003-01-02 08:56:00
3:16 AM,28.4,26.6,93,30.13,7.0,NNE,6.9,-,N/A,,Overcast,20,2003-01-02 09:16:00
3:36 AM,28.4,26.6,93,30.13,7.0,NNE,5.8,-,N/A,,Overcast,30,2003-01-02 09:36:00
3:56 AM,26.6,24.8,93,30.13,5.0,NE,6.9,-,N/A,,Overcast,50,2003-01-02 09:56:00
4:16 AM,26.6,24.8,93,30.13,7.0,NNE,5.8,-,N/A,,Overcast,30,2003-01-02 10:16:00
4:36 AM,26.6,24.8,93,30.12,7.0,NE,5.8,-,N/A,,Overcast,50,2003-01-02 10:36:00
4:56 AM,26.6,24.8,93,30.12,7.0,NE,3.5,-,N/A,,Overcast,50,2003-01-02 10:56:00
5:16 AM,26.6,24.8,93,30.12,7.0,Calm,Calm,-,N/A,,Overcast,0,2003-01-02 11:16:00
5:36 AM,26.6,23.0,86,30.12,10.0,Calm,Calm,-,N/A,,Overcast,0,2003-01-02 11:36:00
5:56 AM,26.6,23.0,86,30.13,10.0,NNW,3.5,-,N/A,,Overcast,330,2003-01-02 11:56:00
6:16 AM,26.6,21.2,80,30.13,10.0,North,5.8,-,N/A,,Overcast,350,2003-01-02 12:16:00
6:38 AM,26.6,21.2,80,30.14,10.0,North,3.5,-,N/A,,Overcast,0,2003-01-02 12:38:00
7:00 AM,26.6,21.2,80,30.14,10.0,NNW,3.5,-,N/A,,Overcast,330,2003-01-02 13:00:00
7:18 AM,26.6,21.2,80,30.14,10.0,NNW,5.8,-,N/A,,Overcast,340,2003-01-02 13:18:00
7:38 AM,26.6,21.2,80,30.15,10.0,NNW,4.6,-,N/A,,Overcast,340,2003-01-02 13:38:00
7:56 AM,26.6,21.2,80,30.15,10.0,NW,8.1,-,N/A,,Overcast,310,2003-01-02 13:56:00
8:16 AM,26.6,23.0,86,30.16,10.0,NW,9.2,-,N/A,,Overcast,320,2003-01-02 14:16:00
8:36 AM,26.6,21.2,80,30.16,10.0,NW,10.4,-,N/A,,Overcast,320,2003-01-02 14:36:00
9:00 AM,28.4,21.2,74,30.17,10.0,NNW,10.4,-,N/A,,Overcast,340,2003-01-02 15:00:00
9:18 AM,28.4,19.4,69,30.17,10.0,NNW,9.2,-,N/A,,Overcast,330,2003-01-02 15:18:00
9:36 AM,28.4,21.2,74,30.18,10.0,NNW,12.7,-,N/A,,Overcast,340,2003-01-02 15:36:00
9:56 AM,28.4,19.4,69,30.19,10.0,North,12.7,-,N/A,,Overcast,350,2003-01-02 15:56:00
10:16 AM,30.2,19.4,64,30.19,10.0,NNW,9.2,-,N/A,,Overcast,340,2003-01-02 16:16:00
10:36 AM,30.2,19.4,64,30.19,10.0,NNW,10.4,-,N/A,,Overcast,340,2003-01-02 16:36:00
10:56 AM,30.2,19.4,64,30.18,10.0,NNW,10.4,-,N/A,,Overcast,340,2003-01-02 16:56:00
11:16 AM,32.0,19.4,60,30.18,10.0,NNW,10.4,-,N/A,,Overcast,340,2003-01-02 17:16:00
11:36 AM,33.8,21.2,60,30.17,10.0,North,9.2,-,N/A,,Overcast,0,2003-01-02 17:36:00
11:56 AM,33.8,21.2,60,30.16,10.0,North,12.7,-,N/A,,Overcast,350,2003-01-02 17:56:00
12:16 PM,33.8,21.2,60,30.15,10.0,NNW,9.2,-,N/A,,Overcast,340,2003-01-02 18:16:00
12:36 PM,33.8,23.0,65,30.14,10.0,NNW,11.5,17.3,N/A,,Overcast,330,2003-01-02 18:36:00
12:56 PM,35.6,24.8,65,30.14,10.0,NNW,12.7,-,N/A,,Overcast,330,2003-01-02 18:56:00
1:16 PM,35.6,24.8,65,30.13,10.0,NW,12.7,-,N/A,,Overcast,320,2003-01-02 19:16:00
1:38 PM,35.6,24.8,65,30.13,7.0,NW,13.8,-,N/A,,Overcast,310,2003-01-02 19:38:00
1:58 PM,35.6,26.6,70,30.12,7.0,NNW,11.5,-,N/A,,Overcast,330,2003-01-02 19:58:00
2:18 PM,33.8,26.6,75,30.13,7.0,NW,11.5,-,N/A,,Overcast,320,2003-01-02 20:18:00
2:38 PM,33.8,26.6,75,30.12,7.0,NNW,10.4,-,N/A,,Overcast,340,2003-01-02 20:38:00
2:56 PM,33.8,26.6,75,30.12,5.0,NNW,10.4,-,N/A,,Haze,340,2003-01-02 20:56:00
3:18 PM,35.6,26.6,70,30.12,7.0,North,9.2,-,N/A,,Overcast,350,2003-01-02 21:18:00
3:36 PM,33.8,26.6,75,30.13,7.0,North,9.2,-,N/A,,Overcast,350,2003-01-02 21:36:00
3:56 PM,33.8,26.6,75,30.14,7.0,North,12.7,-,N/A,,Overcast,350,2003-01-02 21:56:00
4:16 PM,33.8,26.6,75,30.15,7.0,North,12.7,17.3,N/A,,Overcast,350,2003-01-02 22:16:00
4:36 PM,33.8,26.6,75,30.15,7.0,NNW,10.4,-,N/A,,Overcast,340,2003-01-02 22:36:00
4:56 PM,33.8,26.6,75,30.15,7.0,North,10.4,-,N/A,,Overcast,350,2003-01-02 22:56:00
5:16 PM,33.8,26.6,75,30.15,7.0,North,6.9,-,N/A,,Overcast,0,2003-01-02 23:16:00
5:36 PM,33.8,26.6,75,30.16,10.0,North,5.8,-,N/A,,Overcast,0,2003-01-02 23:36:00
5:57 PM,33.8,26.6,75,30.15,7.0,North,6.9,-,N/A,,Overcast,0,2003-01-02 23:57:00
6:17 PM,33.8,26.6,75,30.15,7.0,North,4.6,-,N/A,,Overcast,10,2003-01-03 00:17:00
6:37 PM,33.8,26.6,75,30.15,7.0,North,5.8,-,N/A,,Overcast,0,2003-01-03 00:37:00
6:57 PM,32.0,26.6,80,30.16,7.0,North,4.6,-,N/A,,Overcast,0,2003-01-03 00:57:00
7:17 PM,32.0,26.6,80,30.16,7.0,North,4.6,-,N/A,,Overcast,0,2003-01-03 01:17:00
7:37 PM,32.0,26.6,80,30.16,7.0,North,4.6,-,N/A,,Overcast,0,2003-01-03 01:37:00
7:57 PM,32.0,26.6,80,30.17,7.0,North,5.8,-,N/A,,Overcast,0,2003-01-03 01:57:00
8:17 PM,32.0,26.6,80,30.17,10.0,North,4.6,-,N/A,,Overcast,0,2003-01-03 02:17:00
8:37 PM,32.0,26.6,80,30.17,10.0,NW,3.5,-,N/A,,Overcast,320,2003-01-03 02:37:00
8:57 PM,30.2,24.8,80,30.17,10.0,NW,4.6,-,N/A,,Overcast,320,2003-01-03 02:57:00
9:17 PM,30.2,24.8,80,30.17,7.0,NW,3.5,-,N/A,,Overcast,310,2003-01-03 03:17:00
9:38 PM,30.2,24.8,80,30.17,7.0,NW,3.5,-,N/A,,Overcast,320,2003-01-03 03:38:00
9:59 PM,30.2,24.8,80,30.17,7.0,NW,3.5,-,N/A,,Overcast,310,2003-01-03 03:59:00
10:19 PM,30.2,26.6,86,30.17,7.0,NW,3.5,-,N/A,,Overcast,310,2003-01-03 04:19:00
10:37 PM,30.2,26.6,86,30.18,10.0,NW,4.6,-,N/A,,Overcast,310,2003-01-03 04:37:00
10:57 PM,30.2,26.6,86,30.18,10.0,NW,4.6,-,N/A,,Overcast,310,2003-01-03 04:57:00
11:17 PM,30.2,26.6,86,30.17,10.0,NW,4.6,-,N/A,,Overcast,310,2003-01-03 05:17:00
11:37 PM,30.2,26.6,86,30.17,10.0,NW,3.5,-,N/A,,Overcast,320,2003-01-03 05:37:00
11:57 PM,30.2,26.6,86,30.16,10.0,Calm,Calm,-,N/A,,Overcast,0,2003-01-03 05:57:00